Powrót do katalogu

CZ-3C DEB

AktywnyGTO
NORAD 39351·DEBRIS·🇨🇳 China

Wystrzelony Oct 31, 2010 z Xichang Satellite Launch Center

Loading…

TLE

NieaktualneSource: Space-Track

Epoka: Sep 14, 2026, 03:51 UTC

1 39351U 10057R   26257.16080694  .00000131  00000-0  57059-2 0  9993
2 39351  20.8132  74.1552 7101750 187.7718 356.4356  2.26508806107033

Śledź CZ-3C DEB w czasie rzeczywistym z AllMySat

Download on the App Store